DW5679 Weather Reports


Display with metric or nautical units.
time (UTC)temp
F
wind
direction
speed
MPH
gust
MPH
rain 1hr
in
rain 24hr
in
rain mn
in
humidity
%
barometer
mb
20260904194554 94 49 0.0 2.0 0.00 0.00 0.00 48 1013.7
20260904194527 94 80 0.0 2.0 0.00 0.00 0.00 47 1014.0
20260904193112 93 51 0.0 1.0 0.00 0.00 0.00 52 1013.8
20260904193018 94 81 0.0 1.0 0.00 0.00 0.00 50 1014.2
20260904191555 95 64 0.0 1.0 0.00 0.00 0.00 49 1014.0
20260904191536 95 92 0.0 1.0 0.00 0.00 0.00 48 1014.3
20260904190049 95 360 0.0 2.0 0.00 0.00 0.00 51 1014.2
20260904190030 95 86 0.0 2.0 0.00 0.00 0.00 50 1014.6
20260904184547 94 102 0.0 1.0 0.00 0.00 0.00 51 1014.5
20260904184536 95 132 0.0 1.0 0.00 0.00 0.00 50 1014.7
20260904183045 94 17 0.0 1.0 0.00 0.00 0.00 52 1014.7
20260904183030 94 47 0.0 1.0 0.00 0.00 0.00 52 1014.9
20260904181543 93 17 0.0 1.0 0.00 0.00 0.00 54 1014.9
20260904181527 94 47 0.0 1.0 0.00 0.00 0.00 54 1015.2
20260904180039 92 88 0.0 1.0 0.00 0.00 0.00 54 1015.0
20260904180036 93 119 0.0 1.0 0.00 0.00 0.00 53 1015.2
20260904174538 91 61 1.0 4.0 0.00 0.00 0.00 57 1015.1
20260904174517 91 91 1.0 4.0 0.00 0.00 0.00 56 1015.3
20260904173047 90 82 0.0 1.0 0.00 0.00 0.00 60 1015.4
20260904173017 90 112 0.0 1.0 0.00 0.00 0.00 60 1015.8
20260904171531 89 41 0.0 2.0 0.00 0.00 0.00 60 1015.5
20260904171509 90 71 0.0 2.0 0.00 0.00 0.00 60 1015.8
20260904170030 89 41 0.0 1.0 0.00 0.00 0.00 61 1015.7
20260904170008 90 71 1.0 1.0 0.00 0.00 0.00 59 1016.1
20260904164528 89 51 0.0 0.0 0.00 0.00 0.00 63 1015.8
20260904163027 88 81 0.0 0.0 0.00 0.00 0.00 64 1016.2
20260904163025 88 51 0.0 0.0 0.00 0.00 0.00 64 1015.8
20260904161523 87 51 0.0 0.0 0.00 0.00 0.00 63 1015.8
20260904160019 86 50 0.0 0.0 0.00 0.00 0.00 68 1015.8
20260904160016 87 80 0.0 0.0 0.00 0.00 0.00 68 1016.2
20260904154516 85 50 0.0 0.0 0.00 0.00 0.00 70 1015.9
20260904154513 86 79 0.0 0.0 0.00 0.00 0.00 70 1016.2
20260904153014 85 62 0.0 0.0 0.00 0.00 0.00 72 1016.3
20260904151530 84 62 0.0 0.0 0.00 0.00 0.00 73 1016.2
20260904151509 84 32 0.0 0.0 0.00 0.00 0.00 73 1015.9
20260904150031 83 62 0.0 0.0 0.00 0.00 0.00 74 1016.2
20260904150007 83 32 0.0 0.0 0.00 0.00 0.00 74 1015.8
20260904144525 82 62 0.0 0.0 0.00 0.00 0.00 78 1016.3
20260904144502 81 32 0.0 0.0 0.00 0.00 0.00 78 1015.9
20260904143106 80 32 0.0 0.0 0.00 0.00 0.00 80 1015.8
20260904143029 81 62 0.0 0.0 0.00 0.00 0.00 80 1016.3
20260904141603 79 32 0.0 0.0 0.00 0.00 0.00 83 1015.8
20260904141514 80 62 0.0 0.0 0.00 0.00 0.00 83 1016.1
20260904140056 79 32 0.0 0.0 0.00 0.00 0.00 84 1015.9
20260904140010 79 62 0.0 0.0 0.00 0.00 0.00 84 1016.2
20260904134557 78 32 0.0 0.0 0.00 0.00 0.00 85 1015.9
20260904134539 78 62 0.0 0.0 0.00 0.00 0.00 84 1016.1
20260904133059 77 32 0.0 0.0 0.00 0.00 0.00 86 1015.8
20260904133035 77 62 0.0 0.0 0.00 0.00 0.00 86 1016.1
20260904131550 76 32 0.0 0.0 0.00 0.00 0.00 88 1015.6
20260904131526 76 62 0.0 0.0 0.00 0.00 0.00 88 1015.9
20260904130046 75 32 0.0 0.0 0.00 0.00 0.00 90 1015.6
20260904130026 76 62 0.0 0.0 0.00 0.00 0.00 90 1015.9
20260904124604 75 32 0.0 0.0 0.00 0.00 0.00 90 1015.6
20260904124521 75 62 0.0 0.0 0.00 0.00 0.00 90 1015.8
20260904123054 74 32 0.0 1.0 0.00 0.00 0.00 90 1015.3
20260904123016 75 62 0.0 1.0 0.00 0.00 0.00 90 1015.7
20260904121553 74 22 0.0 1.0 0.00 0.00 0.00 91 1015.2
20260904121529 74 52 0.0 1.0 0.00 0.00 0.00 90 1015.4
20260904120057 73 21 0.0 0.0 0.00 0.00 0.00 90 1015.0
20260904120034 74 52 0.0 0.0 0.00 0.00 0.00 90 1015.3
20260904114553 73 22 0.0 0.0 0.00 0.00 0.00 89 1014.9
20260904114529 74 52 0.0 0.0 0.00 0.00 0.00 89 1015.2
20260904113049 74 22 0.0 1.0 0.00 0.00 0.00 90 1015.1
20260904113027 75 52 0.0 2.0 0.00 0.00 0.00 90 1015.2
20260904111544 75 22 0.0 0.0 0.00 0.00 0.00 88 1014.9
20260904111524 75 51 0.0 0.0 0.00 0.00 0.00 87 1015.1
20260904110044 75 21 0.0 3.0 0.00 0.00 0.00 87 1014.8
20260904110019 75 51 1.0 3.0 0.00 0.00 0.00 86 1015.1
20260904104613 75 26 0.0 1.0 0.00 0.00 0.00 87 1014.8
20260904104531 75 56 0.0 1.0 0.00 0.00 0.00 87 1015.0
20260904103130 75 32 0.0 2.0 0.00 0.00 0.00 86 1014.7
20260904103031 76 64 0.0 1.0 0.00 0.00 0.00 86 1015.0
20260904101551 76 34 0.0 1.0 0.00 0.00 0.00 86 1014.7
20260904101530 76 64 0.0 1.0 0.00 0.00 0.00 87 1015.0
20260904100056 76 32 0.0 1.0 0.00 0.00 0.00 85 1014.6
20260904100027 76 62 0.0 1.0 0.00 0.00 0.00 85 1014.9
20260904094548 76 31 0.0 1.0 0.00 0.00 0.00 86 1014.4
20260904094537 76 61 0.0 1.0 0.00 0.00 0.00 85 1014.7
20260904093053 76 32 0.0 1.0 0.00 0.00 0.00 86 1014.4
20260904093036 76 62 0.0 1.0 0.00 0.00 0.00 85 1014.7
20260904091553 76 31 0.0 0.0 0.00 0.00 0.00 85 1014.4
20260904091533 76 62 0.0 0.0 0.00 0.00 0.00 85 1014.6
20260904090044 76 30 0.0 0.0 0.00 0.00 0.00 85 1014.2
20260904090030 76 60 0.0 1.0 0.00 0.00 0.00 84 1014.5
20260904084545 76 30 0.0 0.0 0.00 0.00 0.00 84 1014.1
20260904084511 76 60 0.0 0.0 0.00 0.00 0.00 84 1014.4
20260904083042 76 30 0.0 0.0 0.00 0.00 0.00 84 1014.1
20260904083007 77 60 0.0 0.0 0.00 0.00 0.00 84 1014.5
20260904081541 76 25 0.0 3.0 0.00 0.00 0.00 85 1014.0
20260904081528 77 55 0.0 3.0 0.00 0.00 0.00 84 1014.3
20260904080040 76 56 0.0 0.0 0.00 0.00 0.00 84 1014.0
20260904080018 77 86 0.0 0.0 0.00 0.00 0.00 83 1014.4
20260904074557 77 57 0.0 0.0 0.00 0.00 0.00 84 1014.0
20260904074519 77 87 0.0 0.0 0.00 0.00 0.00 83 1014.4
20260904073038 77 58 0.0 0.0 0.00 0.00 0.00 82 1013.9
20260904073022 77 88 0.0 0.0 0.00 0.00 0.00 82 1014.3
20260904071550 77 58 0.0 0.0 0.00 0.00 0.00 83 1013.8
20260904071511 78 88 0.0 0.0 0.00 0.00 0.00 82 1014.2
20260904070036 77 58 0.0 0.0 0.00 0.00 0.00 81 1013.9
20260904070008 78 88 0.0 0.0 0.00 0.00 0.00 81 1014.3
20260904064536 78 58 0.0 0.0 0.00 0.00 0.00 81 1013.9
20260904064525 78 88 0.0 0.0 0.00 0.00 0.00 81 1014.3
20260904063044 78 58 0.0 0.0 0.00 0.00 0.00 81 1013.9
20260904063032 78 88 0.0 0.0 0.00 0.00 0.00 81 1014.3
20260904061532 78 58 0.0 0.0 0.00 0.00 0.00 81 1014.1
20260904061529 79 88 0.0 0.0 0.00 0.00 0.00 81 1014.4
20260904060031 78 55 0.0 0.0 0.00 0.00 0.00 80 1014.2
20260904060020 79 86 0.0 0.0 0.00 0.00 0.00 79 1014.5
20260904054534 79 55 0.0 0.0 0.00 0.00 0.00 81 1014.2
20260904054514 79 86 0.0 0.0 0.00 0.00 0.00 80 1014.5
20260904053032 79 86 0.0 0.0 0.00 0.00 0.00 78 1014.5
20260904053027 79 55 0.0 0.0 0.00 0.00 0.00 78 1014.0
20260904051535 79 86 0.0 0.0 0.00 0.00 0.00 76 1014.2
20260904051524 79 56 0.0 0.0 0.00 0.00 0.00 77 1013.9
20260904050035 80 86 0.0 0.0 0.00 0.00 0.00 76 1014.3
20260904050021 80 56 0.0 0.0 0.00 0.00 0.00 77 1013.9
20260904044528 80 85 0.0 0.0 0.00 0.00 0.00 76 1014.3
20260904044520 80 56 0.0 0.0 0.00 0.00 0.00 76 1013.9
20260904043033 81 86 0.0 0.0 0.00 0.00 0.00 77 1014.2
20260904043020 80 56 0.0 0.0 0.00 0.00 0.00 78 1013.9
20260904041525 81 56 0.0 0.0 0.00 0.00 0.00 73 1014.0
20260904041518 81 86 0.0 0.0 0.00 0.00 0.00 73 1014.2
20260904040029 81 86 0.0 0.0 0.00 0.00 0.00 73 1014.2
20260904040019 81 55 0.0 0.0 0.00 0.00 0.00 73 1014.1
20260904034530 82 85 0.0 0.0 0.00 0.00 0.00 73 1014.3
20260904034519 81 56 0.0 0.0 0.00 0.00 0.00 73 1014.0
20260904033029 82 86 0.0 0.0 0.00 0.00 0.00 71 1014.3
20260904033019 82 56 0.0 0.0 0.00 0.00 0.00 71 1014.0
20260904031536 83 86 0.0 0.0 0.00 0.00 0.00 71 1014.3
20260904031517 83 56 0.0 0.0 0.00 0.00 0.00 71 1013.9
20260904030028 83 86 0.0 0.0 0.00 0.00 0.00 72 1014.1
20260904030020 83 55 0.0 0.0 0.00 0.00 0.00 72 1013.8
20260904024525 83 85 0.0 0.0 0.00 0.00 0.00 70 1013.9
20260904024521 83 56 0.0 0.0 0.00 0.00 0.00 70 1013.7
20260904023034 83 86 0.0 0.0 0.00 0.00 0.00 71 1013.9
20260904023016 83 55 0.0 0.0 0.00 0.00 0.00 72 1013.7
20260904021532 84 85 0.0 0.0 0.00 0.00 0.00 71 1013.9
20260904021529 83 56 0.0 0.0 0.00 0.00 0.00 71 1013.5
20260904020029 84 85 0.0 0.0 0.00 0.00 0.00 68 1013.7
20260904020015 84 56 0.0 0.0 0.00 0.00 0.00 68 1013.2
20260904014531 85 86 0.0 0.0 0.00 0.00 0.00 66 1013.5
20260904014515 84 56 0.0 0.0 0.00 0.00 0.00 67 1013.2
20260904013049 85 56 0.0 0.0 0.00 0.00 0.00 64 1012.9
20260904013026 85 86 0.0 0.0 0.00 0.00 0.00 64 1013.3
20260904011548 86 56 0.0 0.0 0.00 0.00 0.00 62 1012.7
20260904011528 86 85 0.0 0.0 0.00 0.00 0.00 62 1013.1
20260904010032 87 86 0.0 0.0 0.00 0.00 0.00 61 1013.2
20260904010029 87 56 0.0 0.0 0.00 0.00 0.00 61 1012.8
20260904004535 89 85 0.0 0.0 0.00 0.00 0.00 59 1012.9
20260904004528 88 56 0.0 0.0 0.00 0.00 0.00 59 1012.7
20260904003033 91 82 0.0 0.0 0.00 0.00 0.00 56 1013.1
20260904003029 90 52 0.0 0.0 0.00 0.00 0.00 57 1012.6
20260904001532 92 81 0.0 0.0 0.00 0.00 0.00 52 1013.0
20260904001528 91 51 0.0 0.0 0.00 0.00 0.00 53 1012.6
20260904000028 92 81 0.0 0.0 0.00 0.00 0.00 52 1012.9
20260904000007 92 52 0.0 0.0 0.00 0.00 0.00 52 1012.5
20260903234527 93 81 0.0 0.0 0.00 0.00 0.00 50 1012.8
20260903234511 93 52 0.0 0.0 0.00 0.00 0.00 50 1012.4
20260903233022 93 82 0.0 1.0 0.00 0.00 0.00 50 1012.8
20260903233005 93 52 0.0 1.0 0.00 0.00 0.00 51 1012.4
20260903231602 93 52 0.0 1.0 0.00 0.00 0.00 49 1012.5
20260903231521 93 81 0.0 1.0 0.00 0.00 0.00 49 1012.7
20260903230047 93 64 0.0 0.0 0.00 0.00 0.00 50 1012.4
20260903230021 93 94 0.0 0.0 0.00 0.00 0.00 50 1012.7
20260903224626 93 352 0.0 1.0 0.00 0.00 0.00 50 1012.5
20260903224517 94 21 0.0 1.0 0.00 0.00 0.00 49 1012.6
20260903223030 94 72 0.0 1.0 0.00 0.00 0.00 50 1012.7
20260903223020 93 42 0.0 1.0 0.00 0.00 0.00 49 1012.4
20260903221527 94 104 0.0 0.0 0.00 0.00 0.00 49 1012.8
20260903221525 94 74 0.0 0.0 0.00 0.00 0.00 50 1012.4
20260903220028 94 104 0.0 0.0 0.00 0.00 0.00 51 1012.7
20260903220009 93 74 0.0 0.0 0.00 0.00 0.00 52 1012.5
20260903214530 93 237 1.0 2.0 0.00 0.00 0.00 49 1012.8
20260903214507 93 207 0.0 2.0 0.00 0.00 0.00 50 1012.7
20260903213016 94 121 0.0 1.0 0.00 0.00 0.00 49 1013.0
20260903213011 94 91 0.0 1.0 0.00 0.00 0.00 50 1012.7
20260903211525 94 111 0.0 1.0 0.00 0.00 0.00 50 1013.3
20260903211503 94 81 0.0 1.0 0.00 0.00 0.00 50 1013.0
20260903210016 94 92 0.0 1.0 0.00 0.00 0.00 51 1013.6
20260903210002 93 62 0.0 1.0 0.00 0.00 0.00 51 1013.3
20260903204603 93 112 0.0 0.0 0.00 0.00 0.00 52 1013.3
20260903204506 93 142 0.0 0.0 0.00 0.00 0.00 55 1013.5
20260903203057 93 25 0.0 1.0 0.00 0.00 0.00 54 1013.5
20260903203029 93 55 0.0 1.0 0.00 0.00 0.00 53 1013.7
20260903201556 92 48 0.0 1.0 0.00 0.00 0.00 51 1013.7
20260903201534 93 78 0.0 1.0 0.00 0.00 0.00 51 1014.0
20260903200055 92 58 0.0 2.0 0.00 0.00 0.00 53 1013.9
20260903200020 93 225 0.0 2.0 0.00 0.00 0.00 50 1014.2